weather.gov     
National Weather Service

Regional Weather Roundup
NWS Homepage
This page is being discontinued on March 12, 2014.
The same data is available at this site. Please update your bookmarks.
Thank you, and we apologize for the inconvenience.
Please send an email to SR-SRH.Webmaster@noaa.gov with any concerns.


Current Version
Previous Version:    01  02  03  04  05  06  07  08  09  10  11  12  13  14  15  16  17  18  19  20  21  22  23  24  25  26  27  28  29  30  
   31  32  33  34  35  36  37  38  39  40  41  42  43  44  45  46  47  48  49  50  51  52  53  
[Printable]
088
ASUS45 KTFX 242219
RWRMT
MONTANA HOURLY WEATHER ROUNDUP
NATIONAL WEATHER SERVICE GREAT FALLS MT
419 PM MDT THU APR 24 2014

NOTE: "FAIR" INDICATES FEW OR NO CLOUDS BELOW 12000 FEET WITH NO
SIGNIFICANT WEATHER AND/OR OBSTRUCTIONS TO VISIBILITY.

* THESE STATIONS ARE NOT UNDER NWS QUALITY CONTROL. THEY DO NOT
   REPORT WEATHER SUCH AS PRECIPITATION OR FOG.

MTZ001>007-043-242300-
WEST OF THE DIVIDE
CITY           SKY/WX    TMP DP  RH WIND       PRES   REMARKS
KALISPELL      CLOUDY    46  43  89 S16       29.79F
MISSOULA       CLOUDY    50  37  61 E6        29.83F
BUTTE          CLOUDY    48  28  46 W12       29.81F
MULLAN PASS    LGT SNOW  32  32 100 SW8       29.80R VSB 2    WCI  25
* ESSEX        N/A       42  35  76 SE4G12     N/A
* LINCOLN      N/A       44  40  86 SW5G13     N/A
* LOOKOUT PASS N/A       39  37  93 S4G9       N/A
* PLAINS APT   PTSUNNY   55  37  51 CALM      29.83R
* POLSON       N/A       44  41  89 SW2G7      N/A
* SEELEY LAKE  N/A       46  39  77 N3         N/A
* THOMP F APT  PTSUNNY   37  37 100 S2G8       N/A
* YAAK HILL    N/A       47  41  80 S1         N/A
$$

MTZ008-052>055-242300-
SOUTHWEST MONTANA
CITY           SKY/WX    TMP DP  RH WIND       PRES   REMARKS
BOZEMAN        CLOUDY    55  28  35 SW18G26   29.79F
DILLON         PTSUNNY   54  28  37 W20       29.80F
W YELLOWSTONE  N/A       36  34  92 SW5G13     N/A   WCI  32
* THREE FORKS  PTSUNNY   57  37  47 SW16G28    N/A
* BOULDER HILL N/A       48  27  44 S14G20     N/A
* MONIDA PASS  N/A       39  31  73 S16        N/A   WCI  30
* RAYNOLDS PAS N/A       38  24  57 S16        N/A   WCI  29
* WHITEHALL    N/A       58  36  44 SW17G29    N/A
* WISE RIVER   N/A       46  34  63 SW11G18    N/A
$$

MTZ009>010-012-014-046-048-049-054-242300-
EAST SLOPES AND CENTRAL MONTANA
CITY           SKY/WX    TMP DP  RH WIND       PRES   REMARKS
CUT BANK       CLOUDY    55  30  39 W23G29    29.69S
GREAT FALLS    CLOUDY    55  34  45 SW24G29   29.70S
HELENA         LGT RAIN  45  39  80 W17G30    29.80R VSB 3
MALMSTROM AFB  CLOUDY    55  34  45 SW22G32   29.67F
* CONRAD       PTSUNNY   55  30  39 S5         N/A
* DEARBORN     N/A       54  33  45 S17G24     N/A
* EAST GLACIER N/A       40  35  82 W12G22     N/A   WCI  33
* MONARCH      N/A       45  27  49 SW19G24    N/A
* PENDROY      N/A       51  29  43 NW16       N/A
* ROGERS PASS  N/A       41  34  76 SE9G17     N/A
* SAINT MARY   N/A       45  32  60 SW10G21    N/A
* SWEET GRASS  N/A       52  28  40 W7G16      N/A
* WHITE SULPH  N/A       47  35  63 SW8G21     N/A
$$

MTZ011-013-016-021-035-040-045-047-050-051-242300-
NORTH CENTRAL MONTANA
CITY           SKY/WX    TMP DP  RH WIND       PRES   REMARKS
HAVRE          CLOUDY    55  30  39 S7        29.70S
LEWISTOWN      CLOUDY    50  30  46 NW10      29.75F
* CHINOOK      CLOUDY    55  28  35 W7        29.70S
* FORT BENTON  CLOUDY    55  36  49 W9G22     29.71S
* MALTA APT    PTSUNNY   61  27  27 W21       29.68F
* CHESTER      N/A       52  31  45 SW15G29    N/A
* DENTON       N/A       55  29  37 SW14G24    N/A
* GEYSER       N/A       53  29  40 SW22G30    N/A
* JUDITH GAP   N/A       49  28  44 SW26       N/A
* LOMA         N/A       58  31  36 SW10G20    N/A
$$

MTZ017>020-022>027-061-062-242300-
NORTHEAST MONTANA
CITY           SKY/WX    TMP DP  RH WIND       PRES   REMARKS
GLASGOW        PTCLDY    61  19  20 W14G22    29.69F
GLENDIVE       PTCLDY    61  21  21 W13G22    29.73F
JORDAN         PTSUNNY   57  28  33 W21       29.73R
SIDNEY         PTCLDY    59  27  29 W9        29.73F
WOLF POINT     PTSUNNY   61  21  21 NW12      29.70F
* BEAVER HILL  N/A       58  20  23 SW14G25    N/A
* CIRCLE       N/A       59  25  27 SW3G23     N/A
* LINDSAY DVD  N/A       57  17  21 SW12G22    N/A
* NAVAJO       N/A       53  32  45 W15        N/A
* SACO         N/A       60  16  18 W11G17     N/A
* SCOBEY APT   SUNNY     54  28  37 NW13G18   29.71S
$$

MTZ028>042-056>058-242300-
SOUTHCENTRAL AND SOUTHEAST MONTANA
CITY           SKY/WX    TMP DP  RH WIND       PRES   REMARKS
BAKER          SUNNY     61  16  17 W22G28    29.74F
BILLINGS       CLOUDY    55  30  39 W12       29.77R
LIVINGSTON     PTSUNNY   55  30  39 SW24G40   29.77F
MILES CITY     CLOUDY    61  27  27 W15       29.74F
* EKALAKA APT  PTCLDY    55  21  27 W13G20    29.77F
* LAUREL APT   PTSUNNY   55  28  35 NW8        N/A
* ROUNDUP APT  CLOUDY    55  25  31 SW6        N/A
* HYSHAM       N/A       57  25  29 W6G12      N/A
* LAME DEER    N/A       55  24  30 NW4G10     N/A
* REED POINT   N/A       58  31  36 W23G32     N/A
* ROSCOE HILL  N/A       48  18  30 SW16G31    N/A
$$

REGIONAL REPORTS...DAKOTAS
CITY           SKY/WX    TMP DP  RH WIND       PRES   REMARKS
WILLISTON      CLOUDY    61  27  27 W15       29.71S
DICKINSON      PTCLDY    57  21  25 NW22      29.70F
CROSBY         N/A       55  32  42 N/A        N/A
TIOGA          PTSUNNY   57  23  27 NW16G23   29.72S
WATFORD CITY   PTSUNNY   55  30  39 NW12      29.70S
BISMARCK       PTCLDY    64  19  18 NW20G28   29.68F
GRAND FORKS    CLOUDY    45  39  80 E3        29.69S
FARGO          PTSUNNY   50  43  77 CALM      29.67F
BUFFALO SD     SUNNY     61  21  21 W18G32    29.70F
RAPID CITY     PTCLDY    63  27  26 NE14      29.76F
$$

REGIONAL REPORTS...WYOMING/IDAHO/WASHINGTON
CITY           SKY/WX    TMP DP  RH WIND       PRES   REMARKS
GILLETTE       PTCLDY    61  19  20 W6        29.76F
SHERIDAN       PTSUNNY   59  23  25 E6        29.75F
CODY           PTSUNNY   57  25  29 W18G31    29.79F
YELLOWSTONE LA CLOUDY    34  27  76 SW8       29.95S WCI  27
SALMON         CLOUDY    50  37  61 NE16G23   29.83R
MULLAN PASS    LGT SNOW  32  32 100 SW8       29.80S VSB 2    WCI  25
SAND POINT     CLOUDY    45  45 100 CALM      29.79R
SPOKANE        CLOUDY    55  39  55 SW25G31   29.75S
$$

REGIONAL REPORTS...ALBERTA
CITY           SKY/WX    TMP DP  RH WIND       PRES   REMARKS
CALGARY        PTSUNNY   52  16  24 E9        29.63S
LETHBRIDGE     PTSUNNY   55  28  35 W15G22    29.65S
MEDICINE HAT   PTCLDY    59  23  25 W14       29.66F
EDMONTON       PTCLDY    45  30  56 N10G18    29.70S
WATERTON GATE  N/A       48  30  50 SW16G24    N/A
CARDSTON       N/A       52  32  47 W13G22     N/A
MILK RIVER     N/A       52  28  40 W18        N/A
$$

REGIONAL REPORTS...SASKATCHEWAN
CITY           SKY/WX    TMP DP  RH WIND       PRES   REMARKS
SWIFT CURRENT  CLOUDY    54  23  30 NW20G26   29.64S
MOOSE JAW      PTSUNNY   54  34  47 NW15G22   29.65F
REGINA         PTSUNNY   54  37  53 NW21      29.66S
VAL MARIE      N/A       59  19  21 W14G21     N/A
ASSINIBOIA     N/A       55  25  31 NW21G28    N/A
CORONACH       N/A       57  25  29 NW15G24    N/A

$$





U.S. Dept. of Commerce
NOAA National Weather Service
1325 East West Highway
Silver Spring, MD 20910
E-mail: w-nws.webmaster@noaa.gov
Page last modified: May 16, 2007
NATIONAL WEATHER SERVICE: for Safety, for Work, for Fun - FOR LIFE